Location: ???? ?????????
(31.1304°N, 31.7111°E)
Time: 18:40:22
(UTC+00:00)

Cosmos 1455 - Pass Details

Date: 29 October 2020
Orbit: 499 x 521 km, 82.5° (Epoch: 30 November)

Event Time Altitude Azimuth Distance (km) Brightness Sun altitude
Rises 16:12:33 0° 183° (S) 2,585 5.9 -14.6°
Reaches altitude 10° 16:14:39 10° 183° (S) 1,709 5.0 -15.0°
Maximum altitude 16:18:24 84° 95° (E) 515 2.0 -15.8°
Drops below altitude 10° 16:22:12 10° 8° (N) 1,733 4.7 -16.6°
Sets 16:24:20 0° 7° (N) 2,627 5.7 -17.1°
